User: anonymous   Login
Location: Nag� el Ma?a??a
(24.0667°N, 32.8833°E)
Time: 10:27:38
(UTC+00:00)
Language:

CZ-4C R/B - Orbit

View from above orbital plane
View from above orbital plane
View from above satellite
View from above satellite

Ground track
Ground track

The orbit data is extracted from the following two-line orbital elements,

1 32290U 07055B   21340.80215442  .00003011  00000-0  70603-4 0  9994
2 32290  97.6820 168.0037 0057695  54.3802 306.2799 15.41219437782784
Epoch (UTC): 06 December 2021 19:15:06
Eccentricity: 0.0057695
inclination: 97.6820°
perigee height: 403 km
apogee height: 482 km
right ascension of ascending node: 168.0037°
argument of perigee: 54.3802°
revolutions per day: 15.41219437
mean anomaly at epoch: 306.2799°
orbit number at epoch: 78278

The dashed part of the orbit path shows where the satellite is in the earth's shadow,  

DLR